User: anonymous   Login
Location: Vancouver
(49.2500°N, 123.1330°W)
Time: 03:31:24
(UTC-07:00)
Language:

SO-67 - Orbit

View from above orbital plane
View from above orbital plane
View from above satellite
View from above satellite

Ground track
Ground track

The orbit data is extracted from the following two-line orbital elements,

1 35870U 09049F   16181.73419316  .00004905  00000-0  92456-4 0  9994
2 35870  97.1183 196.4282 0001195  80.7690  29.9339 15.48959485378586
Epoch (UTC): 29 June 2016 17:37:14
Eccentricity: 0.0001195
inclination: 97.1183°
perigee height: 419 km
apogee height: 420 km
right ascension of ascending node: 196.4282°
argument of perigee: 80.7690°
revolutions per day: 15.48959485
mean anomaly at epoch: 29.9339°
orbit number at epoch: 37858

The dashed part of the orbit path shows where the satellite is in the earth's shadow,  

DLR